Weather History for San Carlos, CA

Change the Weather History Date:

Thursday, March 6, 2014

  Actual Average Record
Temperature  
Mean Temperature 58 °F -  
Max Temperature 64 °F 64 °F 80 °F (1972)
Min Temperature 53 °F 42 °F 30 °F (1971)
Degree Days  
Heating Degree Days 6    
Growing Degree Days 8 (Base 50)    
Moisture  
Dew Point 53 °F    
Average Humidity 86    
Maximum Humidity 100    
Minimum Humidity 59    
Precipitation  
Precipitation 0.00 in - - ()
Sea Level Pressure  
Sea Level Pressure 30.14 in    
Wind  
Wind Speed 5 mph (WNW)    
Max Wind Speed 12 mph    
Max Gust Speed -    
Visibility 9 miles    
Events Rain    
Averages and records for this station are not official NWS values.
T = Trace of Precipitation, MM = Missing Value Source: NWS Daily Summary

Daily Weather History Graph

Daily Weather History Graph

Search for Another Location

Airport:

Trip Planner

Search our weather history database for the weather conditions in past years. The results will help you decide how hot, cold, wet, or windy it might be!

Date:

Astronomy

Mar. 06, 2014 Rise Set
Actual Time 6:33 AM PST 6:07 PM PST
Civil Twilight 6:06 AM PST 6:33 PM PST
Nautical Twilight 5:36 AM PST 7:04 PM PST
Astronomical Twilight 5:06 AM PST 7:34 PM PST
Moon 9:51 AM PST (3/6) No Moon Set
Length of Visible Light 12h 27m
Length of Day
11h 34m
Waxing Crescent, 33% of the Moon is Illuminated
Mar 6
Waxing Crescent
Mar 8
First Quarter
Mar 16
Full
Mar 23
Last Quarter
Mar 30
New

Hourly Weather History & Observations

Time (PST) Temp. Dew Point Humidity Pressure Visibility Wind Dir Wind Speed Gust Speed Precip Events Conditions
12:15 AM 59.0 °F 59.0 °F 100% 30.07 in 3.0 mi ESE 3.5 mph - N/A   Overcast
12:35 AM 59.0 °F 57.2 °F 94% 30.07 in 5.0 mi North 3.5 mph - N/A Rain Light Rain
12:50 AM 59.0 °F 57.2 °F 94% 30.08 in 9.0 mi West 6.9 mph - N/A   Overcast
1:15 AM 59.0 °F 57.2 °F 94% 30.08 in 8.0 mi West 4.6 mph - N/A   Overcast
1:35 AM 59.0 °F 57.2 °F 94% 30.08 in 10.0 mi WSW 5.8 mph - N/A   Overcast
1:50 AM 59.0 °F 57.2 °F 94% 30.09 in 8.0 mi West 6.9 mph - N/A   Overcast
2:15 AM 59.0 °F 57.2 °F 94% 30.08 in 4.0 mi WSW 6.9 mph - N/A   Overcast
2:35 AM 59.0 °F 57.2 °F 94% 30.08 in 10.0 mi WSW 9.2 mph - N/A   Overcast
2:50 AM 57.2 °F 55.4 °F 94% 30.09 in 10.0 mi WSW 9.2 mph - N/A   Overcast
3:15 AM 57.2 °F 55.4 °F 94% 30.10 in 10.0 mi WSW 6.9 mph - N/A   Overcast
3:35 AM 57.2 °F 55.4 °F 94% 30.10 in 10.0 mi West 4.6 mph - N/A   Overcast
3:50 AM 57.2 °F 55.4 °F 94% 30.11 in 10.0 mi West 3.5 mph - N/A   Overcast
4:15 AM 57.2 °F 55.4 °F 94% 30.12 in 10.0 mi NW 6.9 mph - N/A   Overcast
4:35 AM 57.2 °F 53.6 °F 88% 30.12 in 10.0 mi NW 4.6 mph - N/A   Overcast
4:50 AM 57.2 °F 53.6 °F 88% 30.11 in 10.0 mi NW 6.9 mph - N/A   Overcast
5:15 AM 55.4 °F 53.6 °F 94% 30.10 in 10.0 mi Calm Calm - N/A   Overcast
5:35 AM 55.4 °F 53.6 °F 94% 30.11 in 10.0 mi WSW 3.5 mph - N/A   Overcast
5:50 AM 55.4 °F 53.6 °F 94% 30.11 in 10.0 mi Calm Calm - N/A   Overcast
6:10 AM 55.4 °F 53.6 °F 94% 30.12 in 10.0 mi Calm Calm - N/A   Overcast
6:35 AM 53.6 °F 51.8 °F 94% 30.12 in 10.0 mi Calm Calm - N/A   Overcast
6:50 AM 53.6 °F 53.6 °F 100% 30.12 in 9.0 mi Calm Calm - N/A   Mostly Cloudy
6:53 AM 53.6 °F 51.8 °F 94% 30.12 in 7.0 mi Calm Calm - N/A   Overcast
7:52 AM 55.4 °F 53.6 °F 94% 30.14 in 7.0 mi Calm Calm - N/A   Mostly Cloudy
8:47 AM 57.2 °F 53.6 °F 88% 30.18 in 8.0 mi Calm Calm - N/A   Scattered Clouds
9:47 AM 59.0 °F 53.6 °F 82% 30.18 in 9.0 mi Calm Calm - N/A   Mostly Cloudy
10:48 AM 59.0 °F 55.4 °F 88% 30.18 in 9.0 mi ENE 8.1 mph - N/A   Mostly Cloudy
11:47 AM 62.6 °F 53.6 °F 72% 30.20 in 9.0 mi North 9.2 mph - N/A   Mostly Cloudy
12:47 PM 62.6 °F 53.6 °F 72% 30.18 in 9.0 mi North 5.8 mph - N/A   Mostly Cloudy
1:48 PM 62.6 °F 51.8 °F 68% 30.16 in 9.0 mi North 6.9 mph - N/A   Mostly Cloudy
2:49 PM 62.6 °F 50.0 °F 63% 30.16 in 8.0 mi NNW 11.5 mph - N/A   Mostly Cloudy
3:47 PM 62.6 °F 50.0 °F 63% 30.15 in 8.0 mi WNW 8.1 mph - N/A   Mostly Cloudy
4:50 PM 64.4 °F 50.0 °F 59% 30.15 in 8.0 mi WNW 8.1 mph - N/A   Mostly Cloudy
5:47 PM 60.8 °F 50.0 °F 68% 30.16 in 8.0 mi West 9.2 mph - N/A   Scattered Clouds
6:50 PM 57.2 °F 50.0 °F 77% 30.18 in 8.0 mi WNW 11.5 mph - N/A   Mostly Cloudy
7:50 PM 57.2 °F 50.0 °F 77% 30.19 in 8.0 mi WNW 6.9 mph - N/A   Mostly Cloudy
8:47 PM 55.4 °F 50.0 °F 82% 30.20 in 8.0 mi WNW 6.9 mph - N/A   Scattered Clouds
9:15 PM 55.4 °F 50.0 °F 82% 30.20 in 10.0 mi West 5.8 mph - N/A   Partly Cloudy
9:30 PM 55.4 °F 50.0 °F 82% 30.21 in 10.0 mi North 3.5 mph - N/A   Partly Cloudy
9:55 PM 55.4 °F 50.0 °F 82% 30.21 in 10.0 mi WNW 3.5 mph - N/A   Mostly Cloudy
10:15 PM 55.4 °F 50.0 °F 82% 30.21 in 10.0 mi Calm Calm - N/A   Overcast
10:30 PM 55.4 °F 50.0 °F 82% 30.21 in 10.0 mi West 3.5 mph - N/A   Overcast
10:55 PM 55.4 °F 50.0 °F 82% 30.21 in 10.0 mi Calm Calm - N/A   Overcast
11:15 PM 53.6 °F 48.2 °F 82% 30.20 in 10.0 mi SW 3.5 mph - N/A   Scattered Clouds
11:30 PM 53.6 °F 48.2 °F 82% 30.19 in 10.0 mi Calm Calm - N/A   Clear
11:55 PM 53.6 °F 50.0 °F 88% 30.19 in 10.0 mi Calm Calm - N/A   Scattered Clouds